一网星座-0676星 (ONEWEB-0676)

导读

ONEWEB-0676是英国OneWeb公司旗下的低地球轨道宽带通信卫星,于2023年5月20日发射入轨,是OneWeb全球卫星互联网星座的组成单元。OneWeb致力于构建覆盖全球的卫星宽带网络,为地面基础设施覆盖不足的区域提供高速低延迟连接,ONEWEB-0676的成功入轨进一步推动了星座的全球覆盖部署,助力OneWeb为全球企业、政府客户提供稳定卫星互联网服务。

基本信息
目录编号:
56712
目录名称:
ONEWEB-0676
国际标识:
2023-068C
轨道中心:
EARTH
卫星名称:
一网星座-0676星
卫星全名:
一网星座-0676星 (ONEWEB-0676)
卫星状态:
在轨 (已飞行1121 天)
发射日期:
2023-05-20 UTC
国别 :
英国 (GB)
星等 :
--
轨道信息
数据来源 国际轨道数据 AOE轨道数据
星历时间 2026-06-14T12:03:18+0800
9小时前
查看轨道信息
2026-06-14T01:00:00+0800
20小时前
查看轨道信息
半长轴 7575.898km 7575.907km
偏心率 0.0002066 0.0002118
轨道倾角 87.910° 87.911°
近地点辐角 88.906° 90.486°
升交点赤经 229.378° 229.469°
平近点角 271.231° 247.654°
近地点 1196.195km 1196.165km
远地点 1199.327km 1199.375km
周期 109.373分钟 109.373分钟
每日圈数 13.165932 13.165908
详细信息
平衡模式:
三轴稳定
覆盖范围:
全球
运营商:
一网卫星公司
运营商所在国:
英国
制造商(研发单位):
一网卫星公司
制造商所在国:
英国
使用方式:
暂无
卫星简介
OneWeb卫星网络由648颗重约125公斤的微型卫星组成,运行在1200公里的轨道上。 每颗卫星都能够提供至少每秒8千兆位的吞吐量,以使用其高吞吐量的Ku频段有效载荷为家庭和移动平台提供互联网接入。该卫星仍在工作。
2D轨道图
3D轨道图
轨道高度分析图
轨道倾角分析图
轨道综合分析图
查看轨道综合分析图